Lid_Strength_Index
7 7 7 9 9 9 11 11 12 10 10 8 7 7 6 6 5 5 4 4 4 3 3 3 2 2 2 2 2 1 1 1
7 7 7 7 7 11 10 16 16 13 12 10 8 7 6 6 6 5 4 4 4 3 3 2 2 2 1 1 2 1 1 1
7 8 9 8 9 10 9 11 14 15 12 8 7 7 7 6 6 5 5 4 4 3 3 2 2 2 2 2 2 2 1 1
9 8 8 8 9 9 12 13 11 12 12 6 6 6 6 6 6 5 4 4 4 3 3 3 2 2 2 2 2 1 1 2
11 8 7 9 8 8 9 10 12 14 12 6 6 6 6 6 5 5 5 4 4 4 3 3 3 2 2 2 2 1 1 1
12 11 9 10 9 8 9 12 11 11 10 8 7 7 7 6 6 5 5 5 4 4 4 3 3 2 2 2 2 1 2 1
9 8 8 9 9 8 10 9 12 10 9 8 7 8 7 6 6 6 5 5 5 4 4 3 3 2 2 2 2 1 2 2
10 8 8 9 8 8 8 8 9 9 10 6 7 6 7 6 6 6 5 5 4 4 4 4 3 3 3 2 2 1 2 2
12 9 9 11 9 9 8 8 8 11 8 7 7 7 7 6 6 6 5 5 4 4 4 4 3 3 3 2 1 2 2 2
11 11 15 9 8 8 9 9 8 8 8 7 7 6 5 5 5 5 5 4 4 4 4 3 2 2 2 2 2 2 2 2
13 12 10 9 9 10 10 10 7 8 7 6 6 6 6 4 4 4 4 4 3 3 3 3 2 2 2 2 2 2 2 2
13 15 15 10 8 7 7 13 7 7 7 7 7 10 7 4 4 4 3 3 3 3 3 3 2 2 2 2 2 3 2 2
13 14 11 8 7 6 13 11 6 6 6 6 7 6 5 4 4 3 3 3 3 2 3 3 2 2 2 2 3 2 1 1
13 15 15 6 7 10 7 6 6 5 5 6 5 5 5 4 4 4 4 3 3 3 3 2 2 2 3 3 1 1 1 1
11 10 6 5 6 4 5 6 5 5 5 5 5 5 4 5 4 4 4 3 2 3 3 3 2 2 2 2 1 1 1 1
9 7 6 5 4 4 4 5 4 4 4 4 5 5 5 4 4 4 4 3 3 3 4 4 2 2 1 1 1 1 2 1
8 6 6 5 5 4 4 4 4 4 4 4 4 4 4 5 4 4 3 3 3 3 4 3 2 2 1 1 1 1 1 1
9 5 6 6 4 4 5 5 4 4 4 4 4 4 4 4 4 4 4 3 3 3 3 3 2 2 1 1 1 1 2 1
6 5 5 5 4 3 4 4 4 4 4 4 3 3 3 4 4 4 3 3 3 3 3 3 2 2 1 1 1 1 2 2